WAT1714 PHNL-PANC

Flight info

Callsign WAT1714
Flight time 5h 8m
Altitude 40000
Route MKK5 REXIE ZIGIE 3000N15650W 3500N15620W 4000N15545W 4500N15510W 5000N15425W 55N154W/N0496F410 ODK J125 KODNE/N0493F400 BAITT NEELL7
Aircraft B788/H-L/4004

Departure

Time 2026-05-05 03:40
Airport Daniel K. Inouye International Airport (PHNL)

Arrival

Time 2026-05-05 08:48
Airport Ted Stevens Anchorage International Airport (PANC)
Time Latitude Longitude Altitude Speed Heading
2026-05-05 03:39 21.30680 -157.94524 26 ft 0 kts 90°
2026-05-05 03:39 21.30680 -157.94489 26 ft 31 kts 90°
2026-05-05 03:39 21.30680 -157.93816 26 ft 142 kts 90°
2026-05-05 03:40 21.30680 -157.92477 110 ft 209 kts 90°
2026-05-05 03:40 21.30688 -157.91009 1424 ft 191 kts 89°
2026-05-05 03:40 21.30595 -157.89590 2354 ft 198 kts 97°
2026-05-05 03:40 21.30205 -157.88124 3045 ft 213 kts 105°
2026-05-05 03:41 21.29777 -157.86538 3803 ft 228 kts 106°
2026-05-05 03:41 21.29343 -157.84832 4515 ft 244 kts 105°
2026-05-05 03:41 21.28905 -157.83019 5286 ft 257 kts 104°
2026-05-05 03:41 21.28467 -157.81149 6125 ft 266 kts 104°
2026-05-05 03:42 21.28020 -157.79203 7017 ft 272 kts 104°
2026-05-05 03:42 21.27566 -157.77206 7926 ft 278 kts 103°
2026-05-05 03:42 21.27106 -157.75176 8840 ft 283 kts 103°
2026-05-05 03:42 21.26635 -157.73095 9758 ft 288 kts 103°
2026-05-05 03:43 21.26158 -157.70981 10573 ft 297 kts 103°
2026-05-05 03:43 21.25656 -157.68765 11127 ft 315 kts 103°
2026-05-05 03:43 21.25126 -157.66421 11643 ft 334 kts 103°
2026-05-05 03:43 21.24565 -157.63943 12138 ft 352 kts 103°
2026-05-05 03:44 21.23971 -157.61321 12606 ft 371 kts 103°
2026-05-05 03:44 21.23345 -157.58557 13040 ft 389 kts 103°
2026-05-05 03:44 21.22693 -157.55682 13482 ft 406 kts 103°
2026-05-05 03:44 21.22015 -157.52694 14062 ft 417 kts 103°
2026-05-05 03:45 21.21329 -157.49672 14718 ft 426 kts 103°
2026-05-05 03:45 21.20623 -157.46567 15432 ft 432 kts 103°
2026-05-05 03:45 21.19906 -157.43418 16153 ft 437 kts 103°
2026-05-05 03:45 21.19178 -157.40220 16872 ft 442 kts 103°
2026-05-05 03:46 21.18444 -157.36998 17584 ft 447 kts 104°
2026-05-05 03:46 21.17701 -157.33743 18282 ft 451 kts 104°
2026-05-05 03:46 21.16952 -157.30463 18947 ft 455 kts 104°
2026-05-05 03:46 21.16221 -157.27144 19575 ft 460 kts 102°
2026-05-05 03:47 21.15901 -157.23730 20102 ft 466 kts 91°
2026-05-05 03:47 21.16197 -157.20300 20721 ft 468 kts 81°
2026-05-05 03:47 21.17101 -157.16949 21356 ft 471 kts 70°
2026-05-05 03:47 21.18584 -157.13810 21934 ft 474 kts 59°
2026-05-05 03:48 21.20596 -157.11003 22438 ft 479 kts 48°
2026-05-05 03:48 21.23101 -157.08601 22907 ft 483 kts 38°
2026-05-05 03:48 21.25983 -157.06733 23385 ft 488 kts 27°
2026-05-05 03:48 21.29167 -157.05454 23890 ft 491 kts 16°
2026-05-05 03:49 21.32504 -157.04820 24399 ft 493 kts
2026-05-05 03:49 21.35983 -157.04697 24967 ft 495 kts
2026-05-05 03:49 21.39448 -157.04718 25406 ft 500 kts 359°
2026-05-05 03:49 21.42942 -157.04775 25811 ft 504 kts 358°
2026-05-05 03:50 21.46408 -157.04886 26235 ft 508 kts 359°
2026-05-05 03:50 21.49968 -157.04752 26690 ft 511 kts
2026-05-05 03:50 21.53510 -157.04309 27196 ft 513 kts
2026-05-05 03:50 21.57030 -157.03629 27692 ft 516 kts 11°
2026-05-05 03:51 21.60558 -157.02798 28161 ft 520 kts 13°
2026-05-05 03:51 21.64048 -157.01900 28613 ft 524 kts 14°
2026-05-05 03:51 21.67608 -157.00952 29097 ft 528 kts 14°
2026-05-05 03:51 21.71189 -156.99990 29645 ft 530 kts 14°
2026-05-05 03:52 21.74760 -156.99032 30270 ft 531 kts 14°
2026-05-05 03:52 21.78357 -156.98071 30921 ft 530 kts 14°
2026-05-05 03:52 21.81940 -156.97102 31579 ft 529 kts 14°
2026-05-05 03:52 21.85481 -156.96115 32230 ft 528 kts 14°
2026-05-05 03:53 21.89043 -156.95108 32877 ft 526 kts 15°
2026-05-05 03:53 21.92592 -156.94093 33501 ft 525 kts 15°
2026-05-05 03:53 21.96071 -156.93092 34112 ft 523 kts 15°
2026-05-05 03:53 21.99578 -156.92080 34723 ft 521 kts 15°
2026-05-05 03:54 22.03127 -156.91054 35333 ft 520 kts 15°
2026-05-05 03:54 22.06572 -156.90057 35916 ft 518 kts 15°
2026-05-05 03:54 22.10055 -156.89040 36570 ft 513 kts 11°
2026-05-05 03:54 22.13455 -156.88036 37410 ft 505 kts 11°
2026-05-05 03:55 22.16860 -156.87065 37963 ft 502 kts 14°
2026-05-05 03:55 22.20216 -156.86110 38664 ft 495 kts 14°
2026-05-05 03:55 22.23515 -156.85152 39360 ft 487 kts 13°
2026-05-05 03:55 22.26774 -156.84198 39638 ft 482 kts 11°
2026-05-05 03:56 22.29994 -156.83258 39862 ft 481 kts 10°
2026-05-05 03:56 22.33211 -156.82328 39980 ft 484 kts
2026-05-05 03:56 22.39796 -156.80429 39990 ft 493 kts 10°
2026-05-05 03:57 22.46569 -156.79653 39976 ft 489 kts 351°
2026-05-05 03:57 22.53271 -156.80751 40027 ft 487 kts 344°
2026-05-05 03:58 22.59907 -156.82251 39996 ft 484 kts 343°
2026-05-05 03:58 22.66452 -156.83772 39986 ft 484 kts 343°
2026-05-05 03:59 22.73040 -156.85288 39999 ft 485 kts 343°
2026-05-05 03:59 22.79645 -156.86800 39990 ft 485 kts 343°
2026-05-05 04:00 22.86229 -156.88302 39987 ft 481 kts 342°
2026-05-05 04:00 22.92773 -156.89802 40001 ft 482 kts 342°
2026-05-05 04:01 22.99339 -156.91373 39990 ft 482 kts 341°
2026-05-05 04:01 23.05842 -156.93126 39990 ft 480 kts 340°
2026-05-05 04:02 23.12309 -156.94929 40000 ft 480 kts 340°
2026-05-05 04:02 23.18759 -156.96736 39988 ft 481 kts 340°
2026-05-05 04:03 23.25236 -156.98550 39994 ft 480 kts 340°
2026-05-05 04:03 23.31716 -157.00363 39995 ft 478 kts 340°
2026-05-05 04:04 23.38156 -157.02171 39987 ft 478 kts 339°
2026-05-05 04:04 23.44563 -157.03972 40000 ft 478 kts 339°
2026-05-05 04:05 23.51017 -157.05788 39988 ft 479 kts 340°
2026-05-05 04:05 23.57472 -157.07603 39992 ft 478 kts 339°
2026-05-05 04:06 23.63919 -157.09420 39999 ft 478 kts 339°
2026-05-05 04:06 23.70360 -157.11237 39987 ft 479 kts 339°
2026-05-05 04:07 23.76811 -157.13056 39996 ft 478 kts 340°
2026-05-05 04:07 23.83257 -157.14879 39995 ft 479 kts 340°
2026-05-05 04:08 23.89722 -157.16707 39987 ft 479 kts 340°
2026-05-05 04:08 23.96163 -157.18529 39999 ft 478 kts 340°
2026-05-05 04:09 24.02574 -157.20347 39995 ft 479 kts 339°
2026-05-05 04:09 24.09068 -157.22191 39990 ft 480 kts 340°
2026-05-05 04:10 24.15494 -157.24014 40001 ft 478 kts 339°
2026-05-05 04:10 24.20850 -157.25538 39995 ft 479 kts 340°
2026-05-05 04:11 24.27413 -157.27010 39970 ft 487 kts 348°
2026-05-05 04:11 24.34194 -157.27416 40003 ft 489 kts 352°
2026-05-05 04:12 24.41042 -157.27479 39991 ft 492 kts 355°
2026-05-05 04:12 24.47909 -157.27154 40004 ft 493 kts 357°
2026-05-05 04:13 24.54722 -157.26669 40008 ft 494 kts 358°
2026-05-05 04:13 24.61575 -157.26146 39993 ft 494 kts 358°
2026-05-05 04:14 24.68450 -157.25619 40004 ft 494 kts 358°
2026-05-05 04:14 24.75307 -157.25098 40006 ft 494 kts 358°
2026-05-05 04:15 24.82139 -157.24580 39995 ft 493 kts 358°
2026-05-05 04:15 24.88981 -157.24057 40007 ft 492 kts 358°
2026-05-05 04:16 24.95822 -157.23537 40004 ft 493 kts 359°
2026-05-05 04:16 25.02688 -157.23012 39998 ft 493 kts 358°
2026-05-05 04:17 25.09540 -157.22488 40010 ft 493 kts 358°
2026-05-05 04:17 25.16332 -157.21970 39999 ft 493 kts 359°
2026-05-05 04:18 25.23224 -157.21441 40003 ft 493 kts 358°
2026-05-05 04:18 25.30022 -157.20921 40007 ft 494 kts 359°
2026-05-05 04:19 25.36906 -157.20394 39997 ft 495 kts 359°
2026-05-05 04:19 25.43782 -157.19864 40007 ft 494 kts 359°
2026-05-05 04:20 25.50641 -157.19337 40005 ft 495 kts 359°
2026-05-05 04:20 25.57522 -157.18807 39998 ft 494 kts 359°
2026-05-05 04:21 25.64372 -157.18279 40010 ft 494 kts 359°
2026-05-05 04:21 25.71209 -157.17752 40000 ft 495 kts 359°
2026-05-05 04:22 25.78073 -157.17221 40003 ft 494 kts 359°
2026-05-05 04:22 25.84942 -157.16692 40007 ft 492 kts 359°
2026-05-05 04:23 25.91773 -157.16161 39997 ft 492 kts 359°
2026-05-05 04:23 25.98582 -157.15633 40010 ft 493 kts 359°
2026-05-05 04:24 26.05460 -157.15099 40001 ft 493 kts 359°
2026-05-05 04:25 26.15712 -157.14302 40013 ft 494 kts 359°
2026-05-05 04:25 26.22566 -157.13768 39998 ft 492 kts 360°
2026-05-05 04:26 26.29381 -157.13236 40009 ft 492 kts 359°
2026-05-05 04:26 26.36256 -157.12702 40005 ft 495 kts 359°
2026-05-05 04:27 26.43128 -157.12164 40000 ft 494 kts 359°
2026-05-05 04:27 26.49981 -157.11628 40011 ft 494 kts 359°
2026-05-05 04:28 26.56854 -157.11090 39999 ft 494 kts 359°
2026-05-05 04:28 26.63670 -157.10555 40007 ft 494 kts 359°
2026-05-05 04:29 26.70541 -157.10016 40006 ft 494 kts 359°
2026-05-05 04:29 26.77411 -157.09477 40001 ft 494 kts 360°
2026-05-05 04:30 26.84259 -157.08939 40010 ft 492 kts 360°
2026-05-05 04:30 26.91087 -157.08400 40000 ft 493 kts 360°
2026-05-05 04:31 26.97933 -157.07859 40007 ft 493 kts 360°
2026-05-05 04:31 27.04779 -157.07318 40007 ft 493 kts 360°
2026-05-05 04:32 27.11628 -157.06777 39999 ft 493 kts 360°
2026-05-05 04:32 27.18465 -157.06235 40011 ft 493 kts 360°
2026-05-05 04:33 27.25269 -157.05697 40000 ft 493 kts 360°
2026-05-05 04:33 27.32104 -157.05153 40005 ft 490 kts 360°
2026-05-05 04:34 27.38905 -157.04613 40010 ft 490 kts 360°
2026-05-05 04:34 27.45695 -157.04074 39998 ft 491 kts 360°
2026-05-05 04:35 27.52520 -157.03529 40010 ft 491 kts 360°
2026-05-05 04:35 27.59346 -157.02985 40003 ft 491 kts 360°
2026-05-05 04:36 27.66166 -157.02440 40000 ft 491 kts 360°
2026-05-05 04:36 27.72945 -157.01898 40011 ft 491 kts 360°
2026-05-05 04:37 27.79799 -157.01348 40007 ft 492 kts 359°
2026-05-05 04:37 27.86596 -157.00805 40104 ft 493 kts 359°
2026-05-05 04:38 27.93436 -157.00256 40116 ft 492 kts 359°
2026-05-05 04:38 28.00262 -156.99707 40113 ft 492 kts 359°
2026-05-05 04:39 28.07097 -156.99157 40113 ft 492 kts 359°
2026-05-05 04:39 28.13908 -156.98609 40110 ft 493 kts 359°
2026-05-05 04:40 28.20789 -156.98055 40120 ft 494 kts 359°
2026-05-05 04:40 28.27614 -156.97501 40106 ft 491 kts 359°
2026-05-05 04:41 28.34439 -156.96948 40113 ft 491 kts 359°
2026-05-05 04:41 28.41229 -156.96401 40119 ft 492 kts 359°
2026-05-05 04:42 28.48055 -156.95847 40105 ft 492 kts 359°
2026-05-05 04:42 28.54886 -156.95293 40116 ft 491 kts 359°
2026-05-05 04:43 28.61687 -156.94740 40115 ft 492 kts 359°
2026-05-05 04:43 28.68558 -156.94181 40105 ft 492 kts 359°
2026-05-05 04:44 28.75345 -156.93627 40119 ft 492 kts 359°
2026-05-05 04:44 28.82169 -156.93068 40110 ft 490 kts 359°
2026-05-05 04:45 28.88958 -156.92513 40109 ft 488 kts 359°
2026-05-05 04:45 28.95768 -156.91958 40120 ft 490 kts 359°
2026-05-05 04:46 29.02523 -156.91404 40106 ft 490 kts 359°
2026-05-05 04:46 29.09365 -156.90843 40115 ft 489 kts 359°
2026-05-05 04:47 29.16171 -156.90284 40114 ft 490 kts 359°
2026-05-05 04:47 29.22938 -156.89727 40107 ft 489 kts 359°
2026-05-05 04:48 29.29736 -156.89167 40121 ft 489 kts 359°
2026-05-05 04:48 29.36517 -156.88605 40105 ft 486 kts 358°
2026-05-05 04:49 29.43224 -156.88053 40115 ft 487 kts 359°
2026-05-05 04:49 29.50027 -156.87492 40114 ft 487 kts 359°
2026-05-05 04:50 29.56748 -156.86935 40105 ft 487 kts 359°
2026-05-05 04:50 29.63560 -156.86370 40119 ft 487 kts 359°
2026-05-05 04:51 29.70287 -156.85811 40109 ft 487 kts 359°
2026-05-05 04:51 29.77043 -156.85250 40112 ft 487 kts 359°
2026-05-05 04:52 29.83829 -156.84684 40121 ft 493 kts 358°
2026-05-05 04:52 29.90697 -156.84113 40112 ft 494 kts 358°
2026-05-05 04:53 29.96403 -156.83634 40120 ft 493 kts 358°
2026-05-05 04:53 30.03260 -156.83016 40122 ft 494 kts 359°
2026-05-05 04:54 30.10102 -156.82377 40113 ft 494 kts 359°
2026-05-05 04:54 30.16962 -156.81727 40127 ft 494 kts 359°
2026-05-05 04:55 30.23778 -156.81087 40115 ft 496 kts
2026-05-05 04:55 30.30659 -156.80419 40115 ft 494 kts 359°
2026-05-05 04:56 30.37582 -156.79765 40127 ft 500 kts 359°
2026-05-05 04:56 30.44526 -156.79101 40109 ft 499 kts 359°
2026-05-05 04:57 30.51438 -156.78439 40116 ft 498 kts 359°
2026-05-05 04:57 30.58368 -156.77775 40113 ft 499 kts 359°
2026-05-05 04:58 30.65242 -156.77116 40110 ft 499 kts 359°
2026-05-05 04:58 30.72182 -156.76450 40118 ft 499 kts 359°
2026-05-05 04:59 30.79102 -156.75784 40106 ft 499 kts 359°
2026-05-05 04:59 30.86042 -156.75117 40119 ft 501 kts 359°
2026-05-05 05:00 30.93000 -156.74444 40110 ft 500 kts 359°
2026-05-05 05:00 30.99880 -156.73779 40110 ft 499 kts 359°
2026-05-05 05:01 31.06804 -156.73110 40119 ft 500 kts 359°
2026-05-05 05:01 31.13762 -156.72436 40106 ft 500 kts 359°
2026-05-05 05:02 31.20692 -156.71764 40116 ft 499 kts 359°
2026-05-05 05:02 31.27632 -156.71089 40111 ft 501 kts 359°
2026-05-05 05:03 31.34609 -156.70411 40111 ft 503 kts 359°
2026-05-05 05:03 31.41593 -156.69730 40118 ft 503 kts 359°
2026-05-05 05:04 31.48525 -156.69053 40105 ft 503 kts 359°
2026-05-05 05:04 31.55504 -156.68372 40117 ft 503 kts 359°
2026-05-05 05:05 31.62482 -156.67689 40112 ft 503 kts 359°
2026-05-05 05:05 31.69460 -156.67005 40108 ft 503 kts 359°
2026-05-05 05:06 31.76429 -156.66321 40119 ft 503 kts 359°
2026-05-05 05:06 31.83373 -156.65637 40106 ft 503 kts 359°
2026-05-05 05:07 31.90356 -156.64950 40117 ft 502 kts 359°
2026-05-05 05:07 31.97346 -156.64260 40116 ft 503 kts 359°
2026-05-05 05:08 32.04278 -156.63575 40115 ft 503 kts 359°
2026-05-05 05:08 32.11262 -156.62885 40127 ft 503 kts 359°
2026-05-05 05:09 32.18247 -156.62192 40114 ft 503 kts 359°
2026-05-05 05:09 32.25177 -156.61505 40123 ft 502 kts 359°
2026-05-05 05:10 32.32145 -156.60811 40118 ft 502 kts 359°
2026-05-05 05:10 32.39113 -156.60118 40116 ft 503 kts 359°
2026-05-05 05:11 32.46093 -156.59423 40127 ft 503 kts 359°
2026-05-05 05:11 32.53071 -156.58726 40113 ft 503 kts 359°
2026-05-05 05:12 32.60039 -156.58029 40123 ft 502 kts 359°
2026-05-05 05:12 32.67021 -156.57330 40120 ft 503 kts 359°
2026-05-05 05:13 32.73965 -156.56633 40114 ft 503 kts 359°
2026-05-05 05:13 32.80940 -156.55932 40125 ft 503 kts 359°
2026-05-05 05:14 32.87933 -156.55229 40108 ft 503 kts 359°
2026-05-05 05:14 32.94862 -156.54530 40115 ft 502 kts 359°
2026-05-05 05:15 33.01881 -156.53822 40116 ft 503 kts 359°
2026-05-05 05:15 33.08791 -156.53123 40106 ft 503 kts 359°
2026-05-05 05:16 33.15773 -156.52416 40120 ft 503 kts 359°
2026-05-05 05:16 33.22754 -156.51708 40108 ft 503 kts 359°
2026-05-05 05:17 33.29736 -156.50999 40113 ft 502 kts 359°
2026-05-05 05:17 33.36713 -156.50289 40116 ft 503 kts 359°
2026-05-05 05:18 33.43679 -156.49579 40106 ft 503 kts 359°
2026-05-05 05:18 33.50659 -156.48866 40119 ft 503 kts 359°
2026-05-05 05:19 33.57601 -156.48156 40109 ft 503 kts 359°
2026-05-05 05:19 33.64574 -156.47442 40111 ft 502 kts 359°
2026-05-05 05:20 33.71550 -156.46726 40117 ft 503 kts 359°
2026-05-05 05:20 33.78502 -156.46012 40105 ft 503 kts 359°
2026-05-05 05:21 33.85476 -156.45294 40118 ft 503 kts 359°
2026-05-05 05:21 33.92500 -156.44570 40110 ft 503 kts 359°
2026-05-05 05:22 33.99428 -156.43855 40117 ft 502 kts 359°
2026-05-05 05:22 34.06409 -156.43133 40126 ft 503 kts 359°
2026-05-05 05:23 34.13396 -156.42409 40113 ft 503 kts 359°
2026-05-05 05:23 34.20366 -156.41686 40125 ft 503 kts 359°
2026-05-05 05:24 34.27332 -156.40961 40119 ft 503 kts 359°
2026-05-05 05:24 34.34307 -156.40235 40117 ft 503 kts 359°
2026-05-05 05:25 34.41251 -156.39512 40114 ft 498 kts 359°
2026-05-05 05:25 34.48151 -156.38789 40123 ft 503 kts 359°
2026-05-05 05:26 34.55128 -156.38061 40123 ft 503 kts 359°
2026-05-05 05:26 34.62113 -156.37328 40111 ft 503 kts 359°
2026-05-05 05:27 34.69102 -156.36595 40125 ft 502 kts 359°
2026-05-05 05:27 34.79540 -156.35496 40114 ft 503 kts 359°
2026-05-05 05:28 34.86499 -156.34762 40120 ft 502 kts 359°
2026-05-05 05:28 34.93494 -156.34023 40125 ft 503 kts 359°
2026-05-05 05:29 35.00450 -156.33281 40112 ft 503 kts 359°
2026-05-05 05:29 35.07419 -156.32524 40124 ft 503 kts 359°
2026-05-05 05:30 35.14399 -156.31760 40110 ft 503 kts 359°
2026-05-05 05:30 35.21363 -156.30996 40111 ft 503 kts 359°
2026-05-05 05:31 35.28352 -156.30228 40120 ft 503 kts 359°
2026-05-05 05:31 35.35331 -156.29460 40106 ft 503 kts 359°
2026-05-05 05:32 35.42310 -156.28690 40117 ft 503 kts 359°
2026-05-05 05:32 35.49243 -156.27925 40112 ft 503 kts 359°
2026-05-05 05:33 35.56221 -156.27152 40108 ft 503 kts 359°
2026-05-05 05:33 35.63168 -156.26383 40120 ft 503 kts 359°
2026-05-05 05:34 35.70151 -156.25607 40106 ft 503 kts 359°
2026-05-05 05:34 35.77109 -156.24833 40115 ft 503 kts 359°
2026-05-05 05:35 35.84079 -156.24056 40114 ft 503 kts 359°
2026-05-05 05:35 35.91076 -156.23275 40111 ft 503 kts 359°
2026-05-05 05:36 35.98052 -156.22495 40125 ft 503 kts 359°
2026-05-05 05:36 36.04989 -156.21718 40114 ft 503 kts 359°
2026-05-05 05:37 36.11960 -156.20936 40122 ft 503 kts 359°
2026-05-05 05:37 36.17777 -156.20282 40125 ft 503 kts 359°
2026-05-05 05:38 36.24756 -156.19496 40113 ft 503 kts 359°
2026-05-05 05:38 36.31735 -156.18709 40126 ft 503 kts 359°
2026-05-05 05:39 36.38719 -156.17920 40118 ft 503 kts 359°
2026-05-05 05:39 36.45698 -156.17134 40126 ft 501 kts
2026-05-05 05:40 36.52608 -156.16343 40116 ft 500 kts 359°
2026-05-05 05:40 36.59575 -156.15555 40125 ft 504 kts 359°
2026-05-05 05:41 36.66555 -156.14761 40114 ft 503 kts 359°
2026-05-05 05:41 36.73484 -156.13971 40123 ft 503 kts 359°
2026-05-05 05:42 36.80461 -156.13174 40123 ft 503 kts 359°
2026-05-05 05:42 36.87433 -156.12376 40112 ft 503 kts 359°
2026-05-05 05:43 36.94421 -156.11575 40124 ft 503 kts 359°
2026-05-05 05:43 37.01381 -156.10776 40123 ft 503 kts 359°
2026-05-05 05:44 37.08363 -156.09972 40111 ft 503 kts 359°
2026-05-05 05:44 37.15297 -156.09173 40123 ft 503 kts 359°
2026-05-05 05:45 37.22285 -156.08366 40113 ft 503 kts 359°
2026-05-05 05:45 37.29261 -156.07559 40106 ft 503 kts 359°
2026-05-05 05:46 37.36246 -156.06749 40121 ft 503 kts 359°
2026-05-05 05:46 37.43226 -156.05938 40109 ft 503 kts 359°
2026-05-05 05:47 37.50206 -156.05126 40111 ft 503 kts 359°
2026-05-05 05:47 37.57120 -156.04320 40119 ft 503 kts 359°
2026-05-05 05:48 37.64108 -156.03504 40105 ft 503 kts 359°
2026-05-05 05:48 37.71078 -156.02688 40117 ft 503 kts 359°
2026-05-05 05:49 37.78051 -156.01871 40112 ft 503 kts 359°
2026-05-05 05:49 37.85037 -156.01050 40108 ft 503 kts 359°
2026-05-05 05:50 37.92030 -156.00227 40119 ft 503 kts 359°
2026-05-05 05:50 37.98972 -155.99409 40106 ft 503 kts 359°
2026-05-05 05:51 38.05921 -155.98588 40120 ft 503 kts 359°
2026-05-05 05:51 38.12928 -155.97758 40120 ft 503 kts 359°
2026-05-05 05:52 38.19894 -155.96933 40115 ft 503 kts 359°
2026-05-05 05:52 38.26863 -155.96105 40127 ft 503 kts 359°
2026-05-05 05:53 38.33821 -155.95276 40114 ft 503 kts 359°
2026-05-05 05:53 38.40782 -155.94446 40123 ft 503 kts 359°
2026-05-05 05:54 38.47757 -155.93612 40121 ft 503 kts 359°
2026-05-05 05:54 38.54736 -155.92782 40121 ft 501 kts
2026-05-05 05:55 38.61623 -155.91949 40114 ft 495 kts 359°
2026-05-05 05:55 38.68515 -155.91120 40131 ft 504 kts 359°
2026-05-05 05:56 38.75517 -155.90280 40115 ft 504 kts 359°
2026-05-05 05:56 38.82500 -155.89437 40119 ft 503 kts 359°
2026-05-05 05:57 38.89471 -155.88594 40125 ft 503 kts 359°
2026-05-05 05:57 38.96407 -155.87754 40113 ft 503 kts 359°
2026-05-05 05:58 39.03407 -155.86904 40119 ft 503 kts 359°
2026-05-05 05:58 39.10372 -155.86057 40127 ft 503 kts 359°
2026-05-05 05:59 39.17357 -155.85205 40111 ft 503 kts 359°
2026-05-05 05:59 39.24343 -155.84352 40109 ft 503 kts 359°
2026-05-05 06:00 39.31300 -155.83501 40121 ft 503 kts 359°
2026-05-05 06:00 39.38284 -155.82645 40107 ft 503 kts 359°
2026-05-05 06:01 39.45254 -155.81789 40111 ft 503 kts 359°
2026-05-05 06:01 39.52250 -155.80927 40116 ft 504 kts 359°
2026-05-05 06:02 39.59194 -155.80071 40104 ft 503 kts 359°
2026-05-05 06:02 39.66164 -155.79209 40116 ft 503 kts 359°
2026-05-05 06:03 39.73142 -155.78345 40111 ft 504 kts 359°
2026-05-05 06:03 39.80125 -155.77478 40106 ft 503 kts 360°
2026-05-05 06:04 39.87104 -155.76611 40118 ft 503 kts 359°
2026-05-05 06:04 39.94096 -155.75739 40106 ft 504 kts 359°
2026-05-05 06:05 40.01015 -155.74922 40111 ft 503 kts 359°
2026-05-05 06:05 40.07995 -155.74143 40115 ft 503 kts 359°
2026-05-05 06:06 40.14957 -155.73386 40104 ft 503 kts 359°
2026-05-05 06:06 40.21945 -155.72629 40116 ft 503 kts 359°
2026-05-05 06:07 40.28896 -155.71874 40110 ft 503 kts 359°
2026-05-05 06:07 40.35869 -155.71115 40107 ft 503 kts 359°
2026-05-05 06:08 40.42848 -155.70354 40118 ft 503 kts 359°
2026-05-05 06:08 40.49827 -155.69591 40106 ft 503 kts 359°
2026-05-05 06:09 40.56814 -155.68826 40112 ft 503 kts 359°
2026-05-05 06:09 40.63789 -155.68061 40115 ft 502 kts 359°
2026-05-05 06:10 40.70702 -155.67299 40105 ft 502 kts 359°
2026-05-05 06:10 40.77671 -155.66533 40118 ft 503 kts 359°
2026-05-05 06:11 40.84669 -155.65759 40107 ft 503 kts 359°
2026-05-05 06:11 40.91643 -155.64988 40111 ft 502 kts 359°
2026-05-05 06:12 40.98630 -155.64213 40116 ft 503 kts 359°
2026-05-05 06:12 41.05567 -155.63442 40104 ft 503 kts 359°
2026-05-05 06:13 41.12585 -155.62660 40116 ft 503 kts 359°
2026-05-05 06:13 41.19513 -155.61887 40111 ft 503 kts 359°
2026-05-05 06:14 41.26493 -155.61106 40106 ft 503 kts 359°
2026-05-05 06:14 41.33463 -155.60325 40118 ft 503 kts 359°
2026-05-05 06:15 41.40405 -155.59545 40106 ft 503 kts 359°
2026-05-05 06:15 41.47392 -155.58758 40111 ft 503 kts 359°
2026-05-05 06:16 41.54371 -155.57971 40115 ft 503 kts 359°
2026-05-05 06:16 41.61354 -155.57181 40104 ft 503 kts 359°
2026-05-05 06:17 41.68284 -155.56396 40116 ft 503 kts 359°
2026-05-05 06:17 41.75248 -155.55605 40110 ft 503 kts 359°
2026-05-05 06:18 41.82234 -155.54810 40107 ft 503 kts 359°
2026-05-05 06:18 41.89200 -155.54016 40118 ft 503 kts 359°
2026-05-05 06:19 41.96195 -155.53216 40106 ft 503 kts 359°
2026-05-05 06:19 42.03141 -155.52421 40112 ft 503 kts 359°
2026-05-05 06:20 42.08941 -155.51755 40117 ft 503 kts 359°
2026-05-05 06:20 42.15924 -155.50952 40104 ft 503 kts 359°
2026-05-05 06:21 42.22907 -155.50147 40115 ft 503 kts 359°
2026-05-05 06:21 42.29870 -155.49342 40112 ft 503 kts 359°
2026-05-05 06:22 42.36860 -155.48533 40105 ft 503 kts 359°
2026-05-05 06:22 42.43821 -155.47725 40118 ft 503 kts 359°
2026-05-05 06:23 42.50776 -155.46916 40107 ft 503 kts 359°
2026-05-05 06:23 42.57759 -155.46103 40111 ft 503 kts 359°
2026-05-05 06:24 42.64732 -155.45288 40116 ft 503 kts 359°
2026-05-05 06:24 42.71705 -155.44472 40107 ft 502 kts
2026-05-05 06:25 42.78559 -155.43662 40104 ft 495 kts 359°
2026-05-05 06:25 42.85491 -155.42853 40123 ft 504 kts 359°
2026-05-05 06:26 42.92484 -155.42030 40105 ft 503 kts 359°
2026-05-05 06:26 42.99459 -155.41204 40111 ft 502 kts 359°
2026-05-05 06:27 43.09903 -155.39966 40108 ft 503 kts 359°
2026-05-05 06:28 43.16889 -155.39136 40108 ft 503 kts 359°
2026-05-05 06:28 43.23880 -155.38303 40117 ft 503 kts 359°
2026-05-05 06:29 43.30857 -155.37471 40105 ft 503 kts 359°
2026-05-05 06:29 43.37786 -155.36642 40114 ft 503 kts 359°
2026-05-05 06:30 43.44759 -155.35805 40113 ft 503 kts 359°
2026-05-05 06:30 43.51783 -155.34961 40105 ft 503 kts 359°
2026-05-05 06:31 43.58726 -155.34125 40117 ft 503 kts 359°
2026-05-05 06:31 43.65709 -155.33281 40108 ft 503 kts 359°
2026-05-05 06:32 43.72684 -155.32437 40109 ft 503 kts 359°
2026-05-05 06:32 43.79666 -155.31590 40117 ft 503 kts 359°
2026-05-05 06:33 43.86601 -155.30746 40104 ft 503 kts 359°
2026-05-05 06:33 43.93568 -155.29897 40115 ft 503 kts 359°
2026-05-05 06:34 44.00563 -155.29042 40112 ft 503 kts 359°
2026-05-05 06:34 44.07548 -155.28187 40105 ft 503 kts 359°
2026-05-05 06:35 44.14520 -155.27331 40118 ft 503 kts 359°
2026-05-05 06:35 44.21499 -155.26472 40107 ft 503 kts 359°
2026-05-05 06:36 44.28433 -155.25617 40110 ft 503 kts 359°
2026-05-05 06:36 44.35419 -155.24753 40116 ft 503 kts 359°
2026-05-05 06:37 44.42391 -155.23889 40104 ft 503 kts 359°
2026-05-05 06:37 44.49372 -155.23022 40115 ft 503 kts 359°
2026-05-05 06:38 44.56346 -155.22153 40111 ft 503 kts 359°
2026-05-05 06:38 44.63325 -155.21282 40106 ft 503 kts 359°
2026-05-05 06:39 44.70297 -155.20410 40118 ft 503 kts 359°
2026-05-05 06:39 44.77280 -155.19534 40106 ft 503 kts 359°
2026-05-05 06:40 44.84209 -155.18667 40107 ft 495 kts 359°
2026-05-05 06:40 44.91066 -155.17795 40121 ft 502 kts 359°
2026-05-05 06:41 44.98061 -155.16908 40112 ft 504 kts 359°
2026-05-05 06:41 45.05049 -155.15975 40105 ft 503 kts 359°
2026-05-05 06:42 45.12015 -155.15027 40118 ft 503 kts 360°
2026-05-05 06:42 45.18962 -155.14074 40107 ft 504 kts 360°
2026-05-05 06:43 45.25935 -155.13114 40110 ft 503 kts 360°
2026-05-05 06:43 45.32916 -155.12151 40116 ft 504 kts 360°
2026-05-05 06:44 45.39900 -155.11186 40104 ft 504 kts 360°
2026-05-05 06:44 45.46884 -155.10218 40115 ft 503 kts 360°
2026-05-05 06:45 45.53844 -155.09251 40111 ft 504 kts 360°
2026-05-05 06:45 45.60840 -155.08277 40106 ft 503 kts 360°
2026-05-05 06:46 45.67770 -155.07310 40118 ft 503 kts 360°
2026-05-05 06:46 45.74752 -155.06332 40106 ft 504 kts 360°
2026-05-05 06:47 45.81730 -155.05353 40111 ft 503 kts 360°
2026-05-05 06:47 45.88677 -155.04376 40116 ft 504 kts 360°
2026-05-05 06:48 45.95649 -155.03393 40104 ft 503 kts 360°
2026-05-05 06:48 46.02630 -155.02406 40116 ft 503 kts 360°
2026-05-05 06:49 46.09615 -155.01416 40110 ft 504 kts 360°
2026-05-05 06:49 46.16590 -155.00425 40106 ft 503 kts 360°
2026-05-05 06:50 46.23564 -154.99431 40118 ft 504 kts 360°
2026-05-05 06:50 46.30557 -154.98432 40106 ft 504 kts 360°
2026-05-05 06:51 46.37487 -154.97440 40112 ft 503 kts 360°
2026-05-05 06:51 46.44456 -154.96440 40115 ft 504 kts 360°
2026-05-05 06:52 46.51446 -154.95434 40104 ft 504 kts 360°
2026-05-05 06:52 46.58423 -154.94427 40117 ft 503 kts 360°
2026-05-05 06:53 46.65363 -154.93423 40109 ft 504 kts 360°
2026-05-05 06:53 46.72336 -154.92411 40107 ft 503 kts 360°
2026-05-05 06:54 46.79306 -154.91398 40118 ft 504 kts 360°
2026-05-05 06:54 46.86291 -154.90379 40105 ft 504 kts 360°
2026-05-05 06:55 46.93236 -154.89373 40118 ft 494 kts
2026-05-05 06:55 47.00010 -154.88371 40095 ft 492 kts
2026-05-05 06:56 47.06882 -154.87377 40118 ft 502 kts
2026-05-05 06:56 47.13900 -154.86339 40115 ft 515 kts
2026-05-05 06:57 47.21094 -154.85270 40104 ft 520 kts
2026-05-05 06:57 47.28286 -154.84201 40111 ft 518 kts
2026-05-05 06:58 47.35463 -154.83133 40116 ft 519 kts
2026-05-05 06:58 47.42656 -154.82062 40104 ft 519 kts
2026-05-05 06:59 47.49840 -154.80989 40113 ft 518 kts
2026-05-05 06:59 47.56995 -154.79917 40113 ft 519 kts
2026-05-05 07:00 47.64179 -154.78839 40105 ft 519 kts
2026-05-05 07:00 47.71364 -154.77757 40118 ft 518 kts
2026-05-05 07:01 47.78552 -154.76671 40108 ft 519 kts
2026-05-05 07:01 47.85753 -154.75581 40110 ft 519 kts
2026-05-05 07:02 47.91711 -154.74677 40117 ft 519 kts
2026-05-05 07:02 48.00116 -154.73398 40105 ft 522 kts
2026-05-05 07:03 48.06156 -154.72475 40111 ft 521 kts
2026-05-05 07:03 48.13365 -154.71371 40115 ft 520 kts
2026-05-05 07:04 48.20586 -154.70263 40105 ft 521 kts
2026-05-05 07:04 48.27804 -154.69153 40116 ft 520 kts
2026-05-05 07:05 48.34976 -154.68045 40111 ft 521 kts
2026-05-05 07:05 48.42181 -154.66930 40106 ft 521 kts
2026-05-05 07:06 48.49374 -154.65813 40117 ft 520 kts
2026-05-05 07:06 48.56583 -154.64691 40107 ft 521 kts
2026-05-05 07:07 48.63787 -154.63567 40111 ft 520 kts
2026-05-05 07:07 48.71007 -154.62435 40116 ft 521 kts
2026-05-05 07:08 48.78183 -154.61309 40104 ft 521 kts
2026-05-05 07:08 48.85403 -154.60172 40115 ft 520 kts
2026-05-05 07:09 48.92602 -154.59035 40111 ft 521 kts
2026-05-05 07:09 48.99826 -154.57891 40106 ft 521 kts
2026-05-05 07:10 49.06978 -154.56746 40507 ft 505 kts
2026-05-05 07:10 49.14057 -154.55624 40298 ft 517 kts
2026-05-05 07:10 49.17659 -154.55053 40134 ft 521 kts
2026-05-05 07:11 49.21259 -154.54478 40134 ft 519 kts
2026-05-05 07:11 49.28422 -154.53329 40113 ft 520 kts
2026-05-05 07:12 49.35626 -154.52170 40105 ft 521 kts
2026-05-05 07:12 49.42840 -154.51007 40117 ft 520 kts
2026-05-05 07:13 49.50043 -154.49842 40110 ft 521 kts
2026-05-05 07:13 49.57272 -154.48671 40107 ft 521 kts
2026-05-05 07:14 49.64494 -154.47496 40117 ft 520 kts
2026-05-05 07:14 49.71675 -154.46324 40106 ft 521 kts
2026-05-05 07:15 49.78839 -154.45154 40109 ft 515 kts
2026-05-05 07:15 49.85971 -154.43982 40118 ft 515 kts
2026-05-05 07:16 49.93132 -154.42804 40106 ft 517 kts
2026-05-05 07:16 50.00308 -154.41830 40112 ft 515 kts
2026-05-05 07:17 50.07415 -154.41142 40115 ft 515 kts
2026-05-05 07:17 50.14586 -154.40573 40104 ft 516 kts
2026-05-05 07:18 50.21763 -154.40037 40116 ft 515 kts
2026-05-05 07:18 50.28946 -154.39500 40111 ft 516 kts
2026-05-05 07:19 50.36087 -154.38961 40108 ft 518 kts
2026-05-05 07:19 50.43283 -154.38417 40116 ft 517 kts
2026-05-05 07:20 50.50481 -154.37871 40105 ft 517 kts
2026-05-05 07:20 50.57684 -154.37323 40113 ft 517 kts
2026-05-05 07:21 50.64864 -154.36774 40112 ft 517 kts
2026-05-05 07:21 50.72068 -154.36222 40105 ft 517 kts
2026-05-05 07:22 50.79266 -154.35668 40117 ft 517 kts
2026-05-05 07:22 50.86454 -154.35113 40108 ft 518 kts
2026-05-05 07:23 50.93609 -154.34561 40109 ft 518 kts
2026-05-05 07:23 51.00811 -154.34002 40116 ft 518 kts
2026-05-05 07:24 51.08027 -154.33441 40105 ft 518 kts
2026-05-05 07:24 51.15240 -154.32878 40115 ft 517 kts
2026-05-05 07:25 51.22345 -154.32312 40124 ft 510 kts 359°
2026-05-05 07:25 51.29379 -154.31764 40077 ft 506 kts
2026-05-05 07:26 51.36486 -154.31212 40109 ft 516 kts
2026-05-05 07:26 51.43662 -154.30644 40114 ft 518 kts
2026-05-05 07:27 51.50890 -154.30068 40106 ft 517 kts
2026-05-05 07:27 51.58038 -154.29499 40116 ft 516 kts
2026-05-05 07:28 51.65227 -154.28926 40110 ft 517 kts
2026-05-05 07:28 51.72429 -154.28350 40107 ft 517 kts
2026-05-05 07:29 51.79594 -154.27775 40118 ft 516 kts
2026-05-05 07:29 51.86763 -154.27196 40104 ft 515 kts
2026-05-05 07:30 51.93887 -154.26622 40114 ft 514 kts
2026-05-05 07:30 52.04613 -154.25751 40106 ft 516 kts
2026-05-05 07:31 52.11801 -154.25166 40112 ft 515 kts
2026-05-05 07:31 52.18954 -154.24581 40114 ft 517 kts
2026-05-05 07:32 52.26148 -154.23992 40104 ft 518 kts
2026-05-05 07:32 52.33349 -154.23397 40115 ft 515 kts
2026-05-05 07:33 52.40516 -154.22805 40110 ft 514 kts
2026-05-05 07:33 52.47669 -154.22215 40108 ft 515 kts
2026-05-05 07:34 52.54790 -154.21624 40117 ft 515 kts
2026-05-05 07:34 52.61946 -154.21028 40105 ft 515 kts
2026-05-05 07:35 52.69116 -154.20429 40114 ft 514 kts
2026-05-05 07:35 52.76266 -154.19828 40113 ft 515 kts
2026-05-05 07:36 52.83405 -154.19229 40104 ft 514 kts
2026-05-05 07:36 52.90574 -154.18623 40116 ft 514 kts
2026-05-05 07:37 52.97728 -154.18016 40110 ft 515 kts
2026-05-05 07:37 53.04841 -154.17412 40107 ft 514 kts
2026-05-05 07:38 53.11982 -154.16803 40118 ft 514 kts
2026-05-05 07:38 53.19131 -154.16191 40105 ft 515 kts
2026-05-05 07:39 53.26287 -154.15577 40113 ft 514 kts
2026-05-05 07:39 53.33431 -154.14962 40114 ft 514 kts
2026-05-05 07:40 53.40411 -154.14346 40090 ft 492 kts
2026-05-05 07:40 53.47317 -154.13762 40117 ft 502 kts
2026-05-05 07:41 53.54390 -154.13149 40115 ft 514 kts
2026-05-05 07:41 53.61564 -154.12522 40102 ft 515 kts
2026-05-05 07:42 53.68713 -154.11893 40113 ft 514 kts
2026-05-05 07:42 53.75860 -154.11264 40114 ft 515 kts
2026-05-05 07:43 53.82985 -154.10638 40104 ft 514 kts
2026-05-05 07:43 53.90118 -154.10006 40116 ft 513 kts
2026-05-05 07:44 53.97266 -154.09370 40110 ft 515 kts
2026-05-05 07:44 54.04442 -154.08731 40106 ft 514 kts
2026-05-05 07:45 54.11542 -154.08096 40117 ft 514 kts
2026-05-05 07:45 54.18738 -154.07451 40106 ft 515 kts
2026-05-05 07:46 54.25860 -154.06810 40112 ft 514 kts
2026-05-05 07:46 54.32993 -154.06168 40115 ft 514 kts
2026-05-05 07:47 54.38942 -154.05628 40105 ft 515 kts
2026-05-05 07:47 54.46105 -154.04976 40114 ft 514 kts
2026-05-05 07:48 54.53265 -154.04322 40113 ft 515 kts
2026-05-05 07:48 54.60381 -154.03671 40104 ft 515 kts
2026-05-05 07:49 54.67533 -154.03013 40116 ft 514 kts
2026-05-05 07:49 54.74693 -154.02353 40109 ft 515 kts
2026-05-05 07:50 54.81864 -154.01693 40108 ft 516 kts
2026-05-05 07:50 54.88993 -154.01029 40116 ft 516 kts
2026-05-05 07:51 54.96149 -154.00158 40084 ft 517 kts
2026-05-05 07:51 55.03211 -153.97679 40116 ft 517 kts 13°
2026-05-05 07:52 55.10167 -153.94328 40102 ft 518 kts 16°
2026-05-05 07:52 55.17038 -153.90563 40114 ft 517 kts 17°
2026-05-05 07:53 55.23890 -153.86702 40113 ft 518 kts 17°
2026-05-05 07:53 55.30754 -153.82830 40104 ft 518 kts 17°
2026-05-05 07:54 55.37602 -153.78963 40036 ft 520 kts 17°
2026-05-05 07:54 55.41102 -153.76983 39705 ft 529 kts 17°
2026-05-05 07:54 55.44557 -153.75024 39537 ft 529 kts 17°
2026-05-05 07:55 55.51546 -153.71051 39456 ft 520 kts 18°
2026-05-05 07:55 55.58415 -153.67132 39453 ft 525 kts 17°
2026-05-05 07:56 55.65424 -153.63120 39470 ft 532 kts 17°
2026-05-05 07:56 55.72448 -153.59081 39455 ft 531 kts 17°
2026-05-05 07:57 55.79484 -153.55019 39464 ft 530 kts 17°
2026-05-05 07:57 55.86448 -153.50984 39462 ft 527 kts 17°
2026-05-05 07:58 55.93429 -153.46929 39459 ft 528 kts 18°
2026-05-05 07:58 56.00424 -153.42844 39468 ft 528 kts 18°
2026-05-05 07:59 56.07408 -153.38752 39457 ft 528 kts 18°
2026-05-05 07:59 56.14361 -153.34664 39463 ft 528 kts 18°
2026-05-05 08:00 56.21331 -153.30549 39465 ft 528 kts 18°
2026-05-05 08:00 56.28320 -153.26408 39455 ft 527 kts 18°
2026-05-05 08:01 56.35280 -153.22267 39465 ft 525 kts 18°
2026-05-05 08:01 56.42236 -153.18112 39463 ft 527 kts 18°
2026-05-05 08:02 56.49152 -153.13965 39455 ft 527 kts 18°
2026-05-05 08:02 56.56106 -153.09780 39467 ft 526 kts 18°
2026-05-05 08:03 56.63077 -153.05568 39459 ft 527 kts 18°
2026-05-05 08:03 56.70035 -153.01349 39459 ft 526 kts 18°
2026-05-05 08:04 56.76945 -152.97141 39469 ft 526 kts 18°
2026-05-05 08:04 56.83892 -152.92898 39454 ft 522 kts 19°
2026-05-05 08:05 56.90785 -152.88665 39468 ft 521 kts 19°
2026-05-05 08:05 56.97627 -152.84449 39462 ft 523 kts 19°
2026-05-05 08:06 57.04522 -152.80185 39457 ft 520 kts 19°
2026-05-05 08:06 57.11394 -152.75918 39468 ft 521 kts 19°
2026-05-05 08:07 57.18271 -152.71632 39457 ft 524 kts 19°
2026-05-05 08:07 57.25192 -152.67300 39463 ft 523 kts 19°
2026-05-05 08:08 57.32011 -152.63016 39463 ft 521 kts 19°
2026-05-05 08:08 57.38903 -152.58669 39456 ft 522 kts 19°
2026-05-05 08:09 57.45767 -152.54322 39467 ft 521 kts 19°
2026-05-05 08:09 57.52646 -152.49948 39458 ft 522 kts 19°
2026-05-05 08:10 57.59508 -152.45568 39460 ft 521 kts 19°
2026-05-05 08:10 57.66374 -152.41168 39468 ft 522 kts 19°
2026-05-05 08:11 57.73249 -152.36752 39455 ft 522 kts 19°
2026-05-05 08:11 57.80078 -152.32400 39467 ft 520 kts 19°
2026-05-05 08:12 57.86949 -152.28029 39461 ft 519 kts 19°
2026-05-05 08:12 57.93800 -152.23668 39457 ft 520 kts 19°
2026-05-05 08:13 58.00656 -152.19291 39469 ft 521 kts 19°
2026-05-05 08:13 58.07555 -152.14873 39457 ft 523 kts 19°
2026-05-05 08:14 58.14377 -152.10485 39460 ft 521 kts 19°
2026-05-05 08:14 58.21272 -152.06032 39465 ft 522 kts 19°
2026-05-05 08:15 58.28148 -152.01572 39454 ft 522 kts 19°
2026-05-05 08:15 58.34971 -151.97130 39465 ft 519 kts 20°
2026-05-05 08:16 58.41929 -151.93423 39444 ft 521 kts 10°
2026-05-05 08:16 58.49158 -151.92089 39479 ft 523 kts
2026-05-05 08:17 58.56409 -151.91272 39470 ft 522 kts
2026-05-05 08:17 58.63663 -151.90391 39506 ft 521 kts
2026-05-05 08:18 58.70865 -151.89436 39531 ft 522 kts
2026-05-05 08:18 58.78137 -151.88446 39572 ft 522 kts
2026-05-05 08:19 58.85411 -151.87451 39602 ft 527 kts
2026-05-05 08:19 58.92735 -151.86443 39600 ft 526 kts
2026-05-05 08:20 59.00019 -151.85145 39614 ft 525 kts
2026-05-05 08:20 59.07281 -151.83621 39608 ft 527 kts
2026-05-05 08:21 59.14579 -151.81908 39604 ft 526 kts
2026-05-05 08:21 59.21820 -151.80129 39614 ft 523 kts
2026-05-05 08:22 59.28977 -151.78352 39604 ft 520 kts
2026-05-05 08:22 59.36201 -151.76558 39615 ft 525 kts
2026-05-05 08:23 59.43441 -151.74746 39608 ft 525 kts
2026-05-05 08:23 59.50698 -151.72917 39606 ft 525 kts
2026-05-05 08:24 59.57973 -151.71088 39614 ft 526 kts
2026-05-05 08:24 59.65204 -151.69262 39254 ft 532 kts
2026-05-05 08:25 59.68908 -151.68321 38489 ft 539 kts
2026-05-05 08:25 59.72634 -151.67375 37777 ft 536 kts
2026-05-05 08:25 59.76336 -151.66435 37054 ft 530 kts
2026-05-05 08:25 59.79930 -151.65518 36258 ft 525 kts
2026-05-05 08:26 59.83530 -151.64597 35567 ft 518 kts
2026-05-05 08:26 59.87102 -151.63680 34795 ft 514 kts
2026-05-05 08:26 59.90618 -151.62776 34045 ft 512 kts
2026-05-05 08:26 59.94166 -151.61860 33327 ft 515 kts
2026-05-05 08:27 59.97764 -151.60928 32548 ft 521 kts
2026-05-05 08:27 60.01361 -151.59996 31820 ft 518 kts
2026-05-05 08:27 60.04914 -151.59076 31068 ft 510 kts
2026-05-05 08:27 60.08401 -151.58173 30319 ft 502 kts
2026-05-05 08:28 60.11851 -151.57277 29567 ft 494 kts
2026-05-05 08:28 60.15231 -151.56396 28817 ft 487 kts
2026-05-05 08:28 60.18576 -151.55519 28063 ft 480 kts
2026-05-05 08:28 60.21872 -151.54650 27311 ft 473 kts
2026-05-05 08:29 60.25120 -151.53793 26560 ft 467 kts
2026-05-05 08:29 60.28327 -151.52946 25807 ft 461 kts
2026-05-05 08:29 60.31496 -151.52109 25055 ft 456 kts
2026-05-05 08:30 60.37699 -151.50467 23554 ft 445 kts
2026-05-05 08:30 60.39730 -151.49929 23054 ft 442 kts
2026-05-05 08:30 60.43746 -151.48863 22055 ft 435 kts
2026-05-05 08:30 60.46726 -151.48075 21305 ft 431 kts
2026-05-05 08:31 60.48707 -151.47680 20802 ft 429 kts
2026-05-05 08:31 60.51671 -151.47362 20054 ft 425 kts
2026-05-05 08:31 60.54625 -151.47191 19299 ft 422 kts
2026-05-05 08:31 60.57553 -151.47110 18545 ft 419 kts
2026-05-05 08:32 60.60448 -151.47076 17795 ft 416 kts
2026-05-05 08:32 60.63336 -151.47066 17042 ft 412 kts
2026-05-05 08:32 60.66188 -151.47058 16291 ft 409 kts
2026-05-05 08:32 60.69019 -151.47052 15541 ft 406 kts
2026-05-05 08:33 60.71845 -151.47045 14784 ft 403 kts
2026-05-05 08:33 60.74640 -151.47038 14033 ft 400 kts
2026-05-05 08:33 60.77421 -151.47011 13279 ft 396 kts
2026-05-05 08:33 60.80093 -151.46296 12457 ft 387 kts 17°
2026-05-05 08:34 60.82470 -151.44005 11781 ft 369 kts 37°
2026-05-05 08:34 60.84389 -151.40745 11355 ft 351 kts 47°
2026-05-05 08:34 60.86158 -151.37352 10889 ft 340 kts 49°
2026-05-05 08:34 60.87839 -151.34055 10499 ft 329 kts 50°
2026-05-05 08:35 60.89412 -151.30789 10236 ft 312 kts 53°
2026-05-05 08:35 60.90714 -151.27402 10141 ft 291 kts 60°
2026-05-05 08:35 60.91754 -151.24030 9964 ft 276 kts 65°
2026-05-05 08:35 60.92657 -151.20553 9639 ft 269 kts 69°
2026-05-05 08:36 60.93443 -151.17140 9272 ft 265 kts 71°
2026-05-05 08:36 60.94176 -151.13711 8966 ft 258 kts 73°
2026-05-05 08:36 60.94856 -151.10399 8935 ft 243 kts 73°
2026-05-05 08:36 60.95548 -151.07292 8735 ft 241 kts 69°
2026-05-05 08:37 60.96759 -151.04757 8353 ft 254 kts 49°
2026-05-05 08:37 60.98150 -151.02540 8085 ft 251 kts 46°
2026-05-05 08:37 60.99493 -151.00326 7793 ft 248 kts 47°
2026-05-05 08:37 61.00810 -150.98054 7526 ft 245 kts 49°
2026-05-05 08:38 61.02081 -150.95788 7324 ft 239 kts 49°
2026-05-05 08:38 61.03313 -150.93543 7130 ft 236 kts 50°
2026-05-05 08:38 61.04546 -150.91259 6921 ft 237 kts 50°
2026-05-05 08:38 61.05774 -150.88963 6699 ft 239 kts 50°
2026-05-05 08:39 61.07005 -150.86657 6463 ft 239 kts 50°
2026-05-05 08:39 61.08230 -150.84355 6231 ft 236 kts 50°
2026-05-05 08:39 61.09439 -150.82081 6016 ft 233 kts 50°
2026-05-05 08:39 61.10620 -150.79851 5815 ft 231 kts 50°
2026-05-05 08:40 61.11818 -150.77583 5601 ft 232 kts 50°
2026-05-05 08:40 61.13028 -150.75297 5372 ft 236 kts 51°
2026-05-05 08:40 61.14225 -150.72977 5138 ft 234 kts 51°
2026-05-05 08:40 61.15060 -150.70255 4839 ft 223 kts 69°
2026-05-05 08:41 61.15547 -150.67282 4744 ft 215 kts 74°
2026-05-05 08:41 61.16015 -150.64343 4543 ft 215 kts 75°
2026-05-05 08:41 61.16416 -150.61364 4326 ft 214 kts 78°
2026-05-05 08:41 61.16646 -150.58342 4130 ft 210 kts 83°
2026-05-05 08:42 61.16750 -150.55343 3944 ft 207 kts 87°
2026-05-05 08:42 61.16779 -150.52379 3767 ft 205 kts 90°
2026-05-05 08:42 61.16757 -150.49445 3583 ft 203 kts 91°
2026-05-05 08:42 61.16731 -150.46536 3392 ft 199 kts 91°
2026-05-05 08:43 61.16719 -150.43721 3215 ft 192 kts 90°
2026-05-05 08:43 61.16731 -150.41018 3071 ft 185 kts 90°
2026-05-05 08:43 61.16754 -150.38425 3043 ft 175 kts 90°
2026-05-05 08:43 61.16767 -150.35966 3027 ft 165 kts 90°
2026-05-05 08:44 61.16760 -150.33740 2945 ft 148 kts 90°
2026-05-05 08:44 61.16745 -150.31691 2815 ft 135 kts 91°
2026-05-05 08:44 61.16743 -150.29748 2668 ft 133 kts 91°
2026-05-05 08:44 61.16757 -150.27878 2498 ft 130 kts 91°
2026-05-05 08:45 61.16768 -150.26009 2291 ft 129 kts 92°
2026-05-05 08:45 61.16768 -150.24165 2122 ft 128 kts 93°
2026-05-05 08:45 61.16758 -150.22318 1978 ft 128 kts 92°
2026-05-05 08:45 61.16756 -150.20470 1790 ft 128 kts 92°
2026-05-05 08:46 61.16764 -150.18633 1616 ft 128 kts 92°
2026-05-05 08:46 61.16771 -150.16814 1435 ft 124 kts 91°
2026-05-05 08:46 61.16776 -150.15066 1280 ft 121 kts 92°
2026-05-05 08:46 61.16772 -150.13334 1126 ft 120 kts 91°
2026-05-05 08:47 61.16770 -150.11615 968 ft 119 kts 91°
2026-05-05 08:47 61.16773 -150.09889 807 ft 120 kts 91°
2026-05-05 08:47 61.16777 -150.08121 644 ft 124 kts 90°
2026-05-05 08:47 61.16780 -150.06307 476 ft 127 kts 90°
2026-05-05 08:48 61.16782 -150.04461 308 ft 129 kts 90°
2026-05-05 08:48 61.16780 -150.02621 181 ft 126 kts 90°
2026-05-05 08:48 61.16783 -150.00911 166 ft 104 kts 89°
2026-05-05 08:48 61.16787 -149.99874 165 ft 37 kts 90°
2026-05-05 08:49 61.16797 -149.99540 165 ft 13 kts 65°
2026-05-05 08:49 61.16859 -149.99410 165 ft 15 kts 39°
2026-05-05 08:49 61.16950 -149.99257 165 ft 19 kts 39°
2026-05-05 08:49 61.17034 -149.99048 165 ft 20 kts 57°
2026-05-05 08:50 61.17113 -149.98793 165 ft 22 kts 57°
2026-05-05 08:50 61.17200 -149.98564 165 ft 10 kts 46°
2026-05-05 08:50 61.17204 -149.98556 165 ft 0 kts 46°